Hourly Weather Rublenita

Today, 22 April, Thursday

Time Temperature Precipitation Wind Pressure Humidity
00:00 +8°C° 0 mm 2 mps 744 mmHg 69%
01:00 +9°C° 0 mm 1 mps 744 mmHg 70%
02:00 +9°C° 0 mm 1 mps 744 mmHg 71%
03:00 +8°C° 0 mm 1 mps 744 mmHg 73%
04:00 +8°C° 0 mm 1 mps 744 mmHg 74%
05:00 +8°C° 0 mm 1 mps 744 mmHg 75%
06:00 +8°C° 0 mm 2 mps 745 mmHg 71%
07:00 +10°C° 0 mm 2 mps 745 mmHg 67%
08:00 +12°C° 0 mm 2 mps 745 mmHg 62%
09:00 +13°C° 0 mm 3 mps 745 mmHg 57%
10:00 +14°C° 0 mm 3 mps 745 mmHg 52%
11:00 +17°C° 0 mm 3 mps 745 mmHg 47%
12:00 +17°C° 0 mm 4 mps 745 mmHg 44%
13:00 +18°C° 0 mm 4 mps 744 mmHg 42%
14:00 +18°C° 0 mm 4 mps 744 mmHg 39%
15:00 +18°C° 0 mm 4 mps 744 mmHg 40%
16:00 +18°C° 0 mm 4 mps 744 mmHg 41%
17:00 +18°C° 0 mm 4 mps 743 mmHg 42%
18:00 +16°C° 0.2 mm 3 mps 743 mmHg 52%
19:00 +14°C° 0.2 mm 2 mps 743 mmHg 62%
20:00 +13°C° 0.2 mm 1 mps 744 mmHg 73%
21:00 +12°C° 0.5 mm 1 mps 743 mmHg 76%
22:00 +11°C° 0.5 mm 1 mps 743 mmHg 79%
23:00 +11°C° 0.5 mm 1 mps 743 mmHg 81%

Tomorrow, 23 April, Friday

Time Temperature Precipitation Wind Pressure Humidity
00:00 +9°C° 0.1 mm 2 mps 743 mmHg 84%
01:00 +9°C° 0.1 mm 3 mps 743 mmHg 87%
02:00 +7°C° 0.1 mm 4 mps 744 mmHg 89%
03:00 +7°C° 0 mm 3 mps 744 mmHg 90%
04:00 +7°C° 0 mm 3 mps 744 mmHg 90%
05:00 +5°C° 0 mm 3 mps 745 mmHg 90%
06:00 +7°C° 0 mm 3 mps 745 mmHg 84%
07:00 +6°C° 0 mm 4 mps 745 mmHg 78%
08:00 +6°C° 0 mm 4 mps 746 mmHg 71%
09:00 +7°C° 0.2 mm 3 mps 746 mmHg 71%
10:00 +7°C° 0.2 mm 3 mps 746 mmHg 71%
11:00 +7°C° 0.2 mm 2 mps 746 mmHg 71%
12:00 +7°C° 0.4 mm 2 mps 746 mmHg 70%
13:00 +8°C° 0.4 mm 2 mps 746 mmHg 68%
14:00 +8°C° 0.4 mm 2 mps 746 mmHg 67%
15:00 +9°C° 0.1 mm 2 mps 746 mmHg 62%
16:00 +10°C° 0.1 mm 3 mps 746 mmHg 57%
17:00 +10°C° 0.1 mm 3 mps 746 mmHg 52%
18:00 +9°C° 0 mm 3 mps 746 mmHg 56%
19:00 +8°C° 0 mm 3 mps 746 mmHg 61%
20:00 +7°C° 0 mm 2 mps 746 mmHg 66%
21:00 +6°C° 0 mm 2 mps 747 mmHg 68%
22:00 +5°C° 0 mm 2 mps 747 mmHg 71%
23:00 +4°C° 0 mm 3 mps 747 mmHg 73%

Day after tomorrow, 24 April, Saturday

Time Temperature Precipitation Wind Pressure Humidity
00:00 +3°C° 0 mm 3 mps 747 mmHg 76%
01:00 +3°C° 0 mm 3 mps 747 mmHg 79%
02:00 +3°C° 0 mm 3 mps 746 mmHg 81%
03:00 +3°C° 0 mm 3 mps 746 mmHg 81%
04:00 +3°C° 0 mm 4 mps 746 mmHg 81%
05:00 +3°C° 0 mm 4 mps 747 mmHg 81%
06:00 +2°C° 0 mm 6 mps 747 mmHg 77%
07:00 +2°C° 0 mm 7 mps 747 mmHg 72%
08:00 +2°C° 0 mm 8 mps 748 mmHg 68%
09:00 +4°C° 0 mm 8 mps 748 mmHg 58%
10:00 +5°C° 0 mm 8 mps 748 mmHg 48%
11:00 +6°C° 0 mm 8 mps 749 mmHg 38%
12:00 +8°C° 0 mm 7 mps 748 mmHg 36%
13:00 +8°C° 0 mm 7 mps 748 mmHg 35%
14:00 +9°C° 0 mm 7 mps 748 mmHg 33%
15:00 +9°C° 0 mm 7 mps 748 mmHg 35%
16:00 +8°C° 0 mm 6 mps 748 mmHg 37%
17:00 +8°C° 0 mm 6 mps 748 mmHg 39%
18:00 +7°C° 0 mm 4 mps 748 mmHg 45%
19:00 +6°C° 0 mm 2 mps 749 mmHg 51%
20:00 +6°C° 0 mm 1 mps 749 mmHg 57%
21:00 +6°C° 0 mm 1 mps 749 mmHg 58%
22:00 +6°C° 0 mm 1 mps 749 mmHg 58%
23:00 +5°C° 0 mm 1 mps 749 mmHg 59%

25 April, Sunday

Time Temperature Precipitation Wind Pressure Humidity
00:00 +5°C° 0 mm 1 mps 748 mmHg 60%
01:00 +5°C° 0 mm 1 mps 748 mmHg 60%
02:00 +3°C° 0 mm 2 mps 748 mmHg 61%
03:00 +3°C° 0 mm 2 mps 748 mmHg 62%
04:00 +3°C° 0 mm 2 mps 748 mmHg 62%
05:00 +3°C° 0 mm 2 mps 747 mmHg 62%
06:00 +3°C° 0 mm 3 mps 747 mmHg 58%
07:00 +5°C° 0 mm 3 mps 747 mmHg 54%
08:00 +7°C° 0 mm 4 mps 747 mmHg 50%
09:00 +8°C° 0 mm 4 mps 747 mmHg 50%
10:00 +9°C° 0 mm 5 mps 746 mmHg 50%
11:00 +12°C° 0 mm 5 mps 746 mmHg 50%
12:00 +12°C° 0 mm 5 mps 746 mmHg 48%
13:00 +13°C° 0 mm 5 mps 745 mmHg 46%
14:00 +13°C° 0 mm 5 mps 745 mmHg 45%
15:00 +12°C° 0 mm 5 mps 745 mmHg 48%
16:00 +12°C° 0 mm 5 mps 745 mmHg 51%
17:00 +10°C° 0 mm 5 mps 745 mmHg 54%
18:00 +10°C° 0 mm 4 mps 746 mmHg 58%
19:00 +8°C° 0 mm 4 mps 746 mmHg 61%
20:00 +8°C° 0 mm 3 mps 746 mmHg 65%
21:00 +7°C° 0 mm 3 mps 746 mmHg 66%
22:00 +6°C° 0 mm 2 mps 747 mmHg 67%
23:00 +5°C° 0 mm 2 mps 747 mmHg 67%

26 April, Monday

Time Temperature Precipitation Wind Pressure Humidity
00:00 +5°C° 0 mm 2 mps 747 mmHg 67%
01:00 +6°C° 0 mm 1 mps 746 mmHg 67%
02:00 +5°C° 0 mm 1 mps 746 mmHg 67%
03:00 +5°C° 0 mm 1 mps 746 mmHg 68%
04:00 +3°C° 0 mm 2 mps 746 mmHg 70%
05:00 +3°C° 0 mm 2 mps 746 mmHg 72%
06:00 +4°C° 0 mm 2 mps 746 mmHg 66%
07:00 +4°C° 0 mm 3 mps 746 mmHg 61%
08:00 +6°C° 0 mm 4 mps 746 mmHg 55%
09:00 +7°C° 0 mm 4 mps 746 mmHg 50%
10:00 +8°C° 0 mm 5 mps 746 mmHg 44%
11:00 +9°C° 0 mm 5 mps 746 mmHg 38%
12:00 +9°C° 0 mm 5 mps 746 mmHg 38%
13:00 +10°C° 0 mm 6 mps 745 mmHg 38%
14:00 +10°C° 0 mm 6 mps 745 mmHg 38%
15:00 +10°C° 0 mm 6 mps 745 mmHg 39%
16:00 +9°C° 0 mm 5 mps 745 mmHg 40%
17:00 +9°C° 0 mm 5 mps 745 mmHg 41%
18:00 +8°C° 0 mm 4 mps 745 mmHg 45%
19:00 +8°C° 0 mm 3 mps 745 mmHg 49%
20:00 +7°C° 0 mm 2 mps 745 mmHg 53%
21:00 +8°C° 0 mm 1 mps 745 mmHg 54%
22:00 +7°C° 0 mm 1 mps 745 mmHg 55%
23:00 +7°C° 0 mm 1 mps 745 mmHg 56%

27 April, Tuesday

Time Temperature Precipitation Wind Pressure Humidity
00:00 +7°C° 0 mm 1 mps 745 mmHg 58%
01:00 +6°C° 0 mm 1 mps 745 mmHg 59%
02:00 +6°C° 0 mm 1 mps 745 mmHg 61%
03:00 +6°C° 0 mm 1 mps 745 mmHg 62%
04:00 +6°C° 0 mm 1 mps 745 mmHg 63%
05:00 +4°C° 0 mm 0 mps 745 mmHg 64%
06:00 +6°C° 0 mm 0 mps 745 mmHg 61%
07:00 +7°C° 0 mm 0 mps 745 mmHg 58%
08:00 +8°C° 0 mm 0 mps 745 mmHg 56%
09:00 +10°C° 0 mm 1 mps 745 mmHg 53%
10:00 +12°C° 0 mm 1 mps 745 mmHg 50%
11:00 +13°C° 0 mm 1 mps 745 mmHg 47%
12:00 +14°C° 0 mm 2 mps 744 mmHg 45%
13:00 +14°C° 0 mm 2 mps 744 mmHg 43%
14:00 +14°C° 0 mm 3 mps 743 mmHg 41%
15:00 +14°C° 0 mm 3 mps 743 mmHg 42%
16:00 +14°C° 0 mm 4 mps 743 mmHg 44%
17:00 +14°C° 0 mm 4 mps 742 mmHg 45%
18:00 +13°C° 0 mm 4 mps 742 mmHg 52%
19:00 +12°C° 0 mm 4 mps 742 mmHg 59%
20:00 +12°C° 0 mm 5 mps 741 mmHg 66%
21:00 +10°C° 0.2 mm 5 mps 741 mmHg 72%
22:00 +9°C° 0.2 mm 6 mps 741 mmHg 78%
23:00 +9°C° 0.2 mm 6 mps 741 mmHg 83%
Show more